Terminal Aerodrome Forecast
Issued by NWS

Home | Current Version | Previous Version | Text Only | Print | Product List | Glossary On
Versions: 1 2 3 4 5 6 7 8 9 10 11 12 13 14 15 16 17 18 19 20 21 22 23 24 25 26 27 28
000
FTPA31 PHFO 191700
TAFOGG
TAF
PHOG 191738Z 1918/2018 05012G20KT P6SM FEW045 OVC200
     FM192100 06022G30KT P6SM FEW030 SCT050 OVC250
     FM200500 06015G25KT P6SM FEW025 BKN045
      AMD LTD TO WX VIS AND WIND 2009/2016=

USA.gov is the U.S. government's official web portal to all federal, state and local government web resources and services.